EW1160 Weather Reports


Display with metric or nautical units.
time (UTC)temp
F
wind
direction
speed
MPH
gust
MPH
rain 1hr
in
rain 24hr
in
rain mn
in
humidity
%
barometer
mb
20260904171511 71 153 0.0 0.0 0.00 0.60 0.09 94 1012.1
20260904170054 71 153 0.0 3.0 0.00 0.60 0.09 94 1012.0
20260904164553 71 148 0.0 2.0 0.00 0.60 0.09 94 1012.3
20260904163034 70 148 0.0 0.0 0.00 0.60 0.09 94 1012.5
20260904161533 69 141 0.0 3.0 0.00 0.60 0.09 94 1012.8
20260904160012 69 142 0.0 5.0 0.00 0.60 0.09 94 1013.4
20260904154511 68 142 0.0 0.0 0.00 0.60 0.09 94 1013.7
20260904153100 67 143 0.0 0.0 0.00 0.60 0.09 94 1013.9
20260904151557 67 141 0.0 2.0 0.00 0.60 0.09 94 1013.7
20260904150057 67 140 0.0 0.0 0.00 0.60 0.09 94 1013.6
20260904144556 67 140 0.0 0.0 0.00 0.60 0.09 94 1013.6
20260904143056 66 139 0.0 2.0 0.00 0.60 0.09 94 1013.0
20260904141600 66 141 0.0 0.0 0.02 0.60 0.09 94 1013.2
20260904140107 66 142 0.0 0.0 0.07 0.60 0.09 94 1013.6
20260904134611 66 141 0.0 1.0 0.08 0.60 0.09 94 1013.2
20260904133037 65 140 0.0 2.0 0.08 0.60 0.09 94 1013.4
20260904131533 65 142 1.0 4.0 0.06 0.57 0.07 94 1013.1
20260904130014 65 77 0.0 2.0 0.01 0.53 0.02 94 1013.1
20260904124515 65 77 0.0 1.0 0.00 0.52 0.01 94 1012.9
20260904123103 65 78 0.0 0.0 0.00 0.52 0.01 94 1013.0
20260904121559 65 79 0.0 0.0 0.00 0.52 0.01 94 1012.8
20260904120058 65 79 0.0 0.0 0.00 0.52 0.01 94 1012.9
20260904114602 64 79 0.0 0.0 0.00 0.52 0.01 94 1012.6
20260904113057 64 78 0.0 0.0 0.01 0.52 0.01 94 1012.4
20260904111558 64 78 0.0 0.0 0.01 0.52 0.01 94 1012.2
20260904110059 64 79 0.0 1.0 0.01 0.52 0.01 94 1012.2
20260904104557 64 78 0.0 1.0 0.01 0.52 0.01 94 1011.9
20260904103058 64 78 0.0 0.0 0.00 0.51 0.00 94 1011.8
20260904101556 64 79 0.0 0.0 0.00 0.51 0.00 94 1011.5
20260904100104 64 78 0.0 0.0 0.00 0.51 0.00 94 1011.7
20260904094601 64 78 0.0 1.0 0.00 0.51 0.00 94 1011.8
20260904093055 64 79 0.0 0.0 0.00 0.51 0.00 94 1011.8
20260904091555 64 78 0.0 0.0 0.00 0.51 0.00 94 1012.0
20260904090045 63 79 0.0 0.0 0.00 0.51 0.00 94 1012.2
20260904084536 63 78 0.0 0.0 0.00 0.51 0.00 94 1012.0
20260904083020 64 78 0.0 0.0 0.00 0.51 0.00 94 1012.0
20260904081527 64 77 0.0 0.0 0.00 0.51 0.00 94 1011.9
20260904080002 64 78 0.0 1.0 0.00 0.51 0.00 94 1011.7
20260904074501 65 78 0.0 2.0 0.00 0.51 0.00 94 1011.8
20260904073101 64 21 0.0 0.0 0.00 0.51 0.00 94 1011.7
20260904071618 65 21 0.0 0.0 0.00 0.51 0.00 94 1012.3
20260904070114 66 21 0.0 0.0 0.00 0.51 0.00 94 1012.6
20260904064553 66 21 0.0 0.0 0.00 0.51 0.00 94 1012.7
20260904063101 66 21 0.0 0.0 0.00 0.51 0.00 94 1012.8
20260904061553 66 21 0.0 0.0 0.00 0.51 0.00 94 1012.7
20260904060036 67 21 0.0 2.0 0.00 0.51 0.00 94 1012.5
20260904054545 67 21 0.0 1.0 0.00 0.51 0.00 94 1012.7
20260904053035 68 21 0.0 2.0 0.00 0.51 0.00 94 1012.7
20260904051524 68 21 0.0 2.0 0.00 0.51 0.00 94 1013.0
20260904050003 68 21 0.0 5.0 0.00 0.51 0.00 94 1013.0
20260904044502 68 25 0.0 4.0 0.00 0.51 0.00 94 1012.8
20260904043002 68 25 0.0 1.0 0.00 0.51 0.00 94 1012.8
20260904041559 68 187 0.0 3.0 0.00 0.51 0.00 94 1012.8
20260904040107 67 359 0.0 1.0 0.00 0.51 0.00 94 1012.5
20260904034553 66 359 0.0 0.0 0.00 0.52 0.51 94 1012.3
20260904033053 66 186 0.0 0.0 0.00 0.52 0.51 94 1012.2
20260904031557 66 185 0.0 0.0 0.00 0.52 0.51 94 1012.3
20260904030034 67 189 0.0 0.0 0.00 0.52 0.51 94 1012.1
20260904024535 67 187 0.0 0.0 0.00 0.60 0.51 94 1012.1
20260904023016 67 189 0.0 0.0 0.00 0.60 0.51 94 1012.1
20260904021523 68 189 0.0 0.0 0.00 0.60 0.51 94 1012.1
20260904020004 68 189 0.0 0.0 0.00 0.60 0.51 94 1011.9
20260904014504 68 189 0.0 0.0 0.00 0.66 0.51 94 1012.0
20260904013009 68 187 0.0 1.0 0.00 0.66 0.51 94 1011.9
20260904011504 68 185 0.0 1.0 0.00 0.66 0.51 94 1011.9
20260904010003 68 187 0.0 7.0 0.00 0.66 0.51 94 1011.7
20260904004503 68 187 0.0 5.0 0.00 0.67 0.51 94 1011.2
20260904003002 68 185 0.0 49.0 0.00 0.67 0.51 94 1011.0
20260904001502 69 186 0.0 2.0 0.00 0.67 0.51 94 1010.8
20260904000052 69 187 0.0 0.0 0.00 0.67 0.51 94 1010.6
20260903234544 69 189 0.0 0.0 0.00 0.68 0.51 94 1010.8
20260903233025 69 187 0.0 0.0 0.00 0.68 0.51 94 1010.9
20260903231526 69 189 0.0 3.0 0.00 0.68 0.51 94 1011.0
20260903230008 69 188 0.0 1.0 0.00 0.68 0.51 94 1011.2
20260903224516 69 187 0.0 6.0 0.00 0.68 0.51 94 1010.1
20260903223054 69 359 0.0 3.0 0.00 0.68 0.51 94 1010.1
20260903221550 69 263 0.0 0.0 0.01 0.68 0.51 94 1009.8
20260903220039 69 359 0.0 0.0 0.04 0.68 0.51 93 1010.1
20260903214548 69 264 0.0 1.0 0.07 0.68 0.51 93 1009.6
20260903213045 69 359 0.0 0.0 0.08 0.68 0.51 93 1010.5
20260903211538 69 359 0.0 4.0 0.11 0.67 0.50 93 1011.2
20260903210044 69 264 1.0 6.0 0.09 0.64 0.47 93 1011.8
20260903204537 69 249 1.0 9.0 0.28 0.61 0.44 93 1012.1
20260903203037 68 224 4.0 13.0 0.42 0.60 0.43 93 1012.5
20260903201543 69 8 0.0 8.0 0.38 0.56 0.39 93 1011.5
20260903194513 72 239 9.0 19.0 0.08 0.26 0.09 92 1012.8
20260903193012 73 261 0.0 3.0 0.01 0.18 0.01 92 1010.1
20260903191555 73 260 0.0 0.0 0.01 0.18 0.01 92 1010.3
20260903190055 74 359 0.0 0.0 0.01 0.18 0.01 92 1010.1
20260903184538 74 260 0.0 2.0 0.01 0.18 0.01 92 1010.3
20260903183037 74 258 0.0 1.0 0.00 0.17 0.00 92 1009.4
20260903181521 74 258 0.0 2.0 0.00 0.17 0.00 91 1010.8
20260903180025 75 359 1.0 3.0 0.00 0.17 0.00 91 1011.1
20260903174507 74 249 0.0 2.0 0.00 0.17 0.00 92 1011.1
20260903173004 74 250 0.0 0.0 0.00 0.17 0.00 92 1011.5